www.pogodaiklimat.ru

Погода и климат >> Архив погоды >> Саудовская Аравия >> Makkah


АРХИВ ПОГОДЫ в Makkah

Время (UTC), дата Ветер
(напр.,м/с)
 
Видим.   Явления Облачность Т
(С)
Тd
(С)
f
(%)
Тe
(С)
Тes
(С)
Комфортность P
(гПа)
Po
(гПа)
Тmin
(С)
Tmax
(С)
R
(мм)
R24
(мм)
S
(см)
00 18.05 штиль 0 10 км ясно +30.0 +15.0 40 +32 +32 жарко 1002.9 976.9
03 18.05 штиль 0 10 км ясно +28.0 +17.0 51 +32 +32 душно 1003.1 976.9
06 18.05 штиль 0 10 км ясно +34.0 +12.0 26 +34 +48 очень
жарко
1003.9 977.7 +27.6
09 18.05 СЗ 1 10 км ясно +41.6 +9.0 14 +40 +65 опасность
солнечного
удара
1003.5 977.6
12 18.05 СЗ 2 10 км ясно +44.0 +7.0 11 +42 +56 опасность
перегрева
1002.1 976.2
15 18.05 С 2 10 км ясно +41.4 +9.0 14 +39 +40 очень
жарко
1002.0 976.0
18 18.05 СВ 1 10 км ясно +36.5 +12.0 23 +36 +36 очень
жарко
1002.9 977.0 +45.0
21 18.05 штиль 0 10 км ясно +33.7 +11.0 25 +33 +33 жарко 1003.7 977.9
00 19.05 штиль 0 10 км ясно +30.9 +13.0 33 +32 +32 жарко 1002.3 976.5
03 19.05 штиль 0 10 км ясно +29.6 +15.0 41 +32 +32 душно 1003.5 977.4
06 19.05 штиль 0 10 км ясно +36.0 +13.0 25 +36 +50 очень
жарко
1004.3 978.3 +29.0
09 19.05 СЗ 1 10 км ясно +43.0 +9.0 13 +41 +67 опасность
перегрева
1003.3 977.5
12 19.05 ЮЗ 1 10 км ясно +45.2 +9.0 12 +43 +60 опасность
перегрева
1001.5 975.7
15 19.05 ЮЗ 2 10 км ясно +40.0 +15.0 23 +41 +42 опасность
перегрева
1002.9 976.8
18 19.05 Ю 1 10 км ясно +35.4 +14.0 28 +36 +36 очень
жарко
1004.2 978.3 +46.0
21 19.05 Ю 2 10 км ясно +32.0 +18.0 43 +36 +36 очень
душно
1004.8 979.0
00 20.05 штиль 0 10 км ясно +30.8 +20.0 53 +37 +37 очень
душно
1003.7 977.9
03 20.05 штиль 0 10 км ясно +29.6 +19.0 53 +35 +35 очень
душно
1004.3 978.1
06 20.05 штиль 0 10 км ясно +35.0 +17.0 34 +38 +52 опасность
солнечного
удара
1005.3 979.2 +29.2
09 20.05 ЮЗ 3 9000 м мгла ясно +37.6 +18.0 32 +41 +59 опасность
перегрева
1005.3 979.2
12 20.05 Ю 5 10 км ясно +39.5 +19.0 31 +44 +51 опасность
перегрева
1003.6 977.5
15 20.05 Ю 2 10 км ясно +36.8 +19.0 35 +41 +42 опасность
перегрева
1004.0 977.8
18 20.05 штиль 0 10 км 1/0
[Ac trans]
+32.8 +24.0 60 +45 +45 опасность
перегрева
1005.4 979.3 +40.0
21 20.05 СЗ 1 10 км ясно +31.8 +23.0 60 +42 +42 опасность
перегрева
1005.4 979.3
00 21.05 штиль 0 10 км 4/0
[Ac lent]
+31.4 +23.0 61 +42 +42 опасность
перегрева
1004.5 978.5
03 21.05 Ю 1 10 км ясно +29.8 +21.0 59 +37 +37 очень
душно
1006.4 980.0
06 21.05 Ю 3 10 км ясно +33.2 +21.0 49 +41 +49 опасность
перегрева
1008.5 982.1 +29.8
09 21.05 ЮЗ 1 10 км 1/0
[Ac trans]
+38.0 +21.0 37 +44 +69 опасность
перегрева
1007.5 981.3
12 21.05 ЮЗ 1 10 км 3/3 1200 м
[Cu hum]
+40.6 +20.0 31 +46 +58 опасность
перегрева
1005.0 979.0
15 21.05 С 2 8000 м пыль 8/8 900 м
[Cb calv]
+38.4 +16.0 27 +40 +40 очень
душно
1006.6 980.4
18 21.05 Ю 2 10 км 3/3 1200 м
[Sc diur, vesp]
+31.7 +17.0 41 +35 +35 очень
душно
1007.4 981.1 +41.8
21 21.05 С 2 10 км 3/3 1200 м
[Sc diur, vesp]
+31.6 +15.0 37 +34 +34 душно 1006.8 980.7
00 22.05 штиль 0 10 км 3/3 1200 м
[Sc diur, vesp]
+31.8 +17.0 41 +35 +35 очень
душно
1005.4 979.4 1
03 22.05 штиль 0 10 км ясно +28.8 +18.0 52 +33 +33 очень
душно
1007.2 980.6
06 22.05 штиль 0 10 км ясно +34.8 +16.0 33 +37 +51 опасность
солнечного
удара
1008.4 982.1 +28.5
09 22.05 СЗ 2 10 км ясно +40.9 +16.0 23 +42 +64 опасность
перегрева
1007.6 981.6
12 22.05 штиль 0 10 км ясно +43.8 +15.0 19 +45 +64 опасность
перегрева
1005.2 979.3
15 22.05 СЗ 2 10 км 6/0
[Ac trans]
+41.0 +16.0 23 +42 +43 опасность
перегрева
1005.1 979.0
18 22.05 штиль 0 10 км 4/0
[Ac trans]
+36.8 +17.0 31 +39 +39 очень
душно
1007.3 981.4 +44.4
21 22.05 штиль 0 10 км ясно +34.6 +18.0 37 +38 +38 очень
душно
1007.4 981.5
00 23.05 штиль 0 10 км 3/0
[Ac trans]
+32.8 +18.0 41 +37 +37 очень
душно
1006.0 980.2
03 23.05 штиль 0 10 км ясно +31.8 +18.0 44 +36 +36 очень
душно
1007.0 980.9
06 23.05 штиль 0 10 км ясно +35.8 +17.0 33 +39 +53 опасность
солнечного
удара
1007.5 981.4 +26.2
09 23.05 СЗ 1 10 км ясно +43.2 +11.0 15 +42 +68 опасность
перегрева
1005.6 979.8
12 23.05 СЗ 2 10 км ясно +46.3 +10.0 12 +45 +60 опасность
перегрева
1003.2 977.5
15 23.05 СВ 2 10 км 3/3 1200 м
[Sc diur, vesp]
+44.2 +10.0 13 +43 +43 опасность
перегрева
1002.1 976.3
18 23.05 штиль 0 10 км ясно +38.6 +13.0 22 +39 +39 душно 1003.8 978.1 +46.6
21 23.05 штиль 0 10 км ясно +36.0 +11.0 22 +35 +35 очень
жарко
1004.2 978.6
00 24.05 штиль 0 10 км ясно +34.4 +10.0 23 +34 +34 очень
жарко
1003.1 977.5
03 24.05 штиль 0 10 км ясно +33.4 +9.0 22 +32 +32 жарко 1003.9 978.1
06 24.05 СЗ 1 10 км 3/0
[Ci sp]
+40.0 +8.0 15 +38 +50 очень
жарко
1004.5 978.7 +32.4
09 24.05 СЗ 2 10 км 1/0
[Ci fib]
+44.0 +10.0 13 +42 +64 опасность
перегрева
1003.7 978.0
12 24.05 Ю 1 10 км ясно +46.6 +9.0 11 +45 +61 опасность
перегрева
1000.9 975.3
15 24.05 З 2 10 км 3/3 1200 м
[Cu hum]
+45.0 +10.0 13 +44 +44 опасность
перегрева
999.9 974.4
18 24.05 СЗ 2 10 км ясно +37.7 +11.0 20 +37 +37 очень
жарко
1001.9 976.3 +47.0
21 24.05 С 1 10 км ясно +36.6 +10.0 20 +35 +35 очень
жарко
1001.7 976.2

 

Местоположение метеостанции Makkah (Саудовская Аравия): широта 21.43 долгота 39.77 высота над уровнем моря 240 м.

В архиве по умолчанию представлена погода в Makkah за последнюю неделю. Архивные данные за месяц целиком и за предыдущие месяцы, начиная с января 2011 года, Вы можете получить, выбрав интересующий диапазон дат из раскрывающегося списка и нажав кнопку "Ввод!".


*Определитесь, кто Вы:
робот инопланетянин человек

Внимание! Время в таблицах - всемирное. Для получения местного времени необходимо прибавить поправку, которая в Makkah равна 3 ч.

Смотрите также архив погоды в соседних городах и на ближайших метеорологических станциях:

Погода в Mina (Саудовская Аравия) (10 км)
Погода в Arafat (Саудовская Аравия) (24 км)
Погода в Jeddah King Abdul Aziz (Саудовская Аравия) (68 км)
Погода в Al Taif (Саудовская Аравия) (81 км)
Погода в Al Baha (Саудовская Аравия) (232 км)
Погода в Port Sudan (Судан) (336 км)
Погода в Bisha (Саудовская Аравия) (338 км)
Погода в Madinah (Саудовская Аравия) (347 км)
Погода в Yanbu (Саудовская Аравия) (347 км)
Погода в Abha (Саудовская Аравия) (466 км)

Пояснения к столбцам:

Ветер - указаны скорость ветра в м/с - средняя за 10 мин, порывы в срок и между сроками (в фигурных скобках) и направление, откуда дует ветер: С - северный, СВ - северо-восточный, В - восточный, ЮВ - юго-восточный, Ю - южный, ЮЗ - юго-западный, З - западный, СЗ - северо-западный.
Видимость - горизонтальная дальность видимости в метрах или километрах. При видимости от 1 до 10 км при отсутствии осадков обычно наблюдается дымка, при ухудшении видимости до 1 км и менее - туман. В сухую погоду видимость может ухудшаться дымом, пылью или мглою.
Явления - указаны атмосферные явления, наблюдавшиеся в срок или в последний час перед сроком; фигурными скобками обозначены явления, наблюдавшиеся между сроками (за 1-3 часа до срока); квадратными скобками обозначены град или гололедные отложения с указанием их диаметра в мм.
Облачность - указаны через наклонную черту общая и нижняя облачность в баллах и высота нижней границы облаков в метрах; квадратными скобками обозначены формы облаков: Ci - перистые, Cs - перисто-слоистые, Cc - перисто-кучевые, Ac - высококучевые, As - высокослоистые, Sc - слоисто-кучевые, Ns - слоисто-дождевые, Cu - кучевые, Cb - кучево-дождевые. Подробнее классификацию облаков см. в Атласе облаков (PDF).
T - Температура воздуха - температура, измеренная на высоте 2 м над землей.
Td - Температура точки росы - температура, при понижении до которой содержащийся в воздухе водяной пар достигнет насыщения.
f - Относительная влажность воздуха - влажноcть воздуха, измеренная на высоте 2 м над землей.
Te - Эффективная температура - температура, которую ощущает одетый по сезону человек в тени. Характеристика душности погоды. При расчете учитывается влияние влажности воздуха и скорости ветра на теплоощущения человека.
Tes - Эффективная температура на солнце - температура, которую ощущает человек, с поправкой на солнечный нагрев. Характеристика знойности погоды. Зависит от высоты солнца над горизонтом, облачности и скорости ветра. Ночью, в пасмурную погоду, а также при ветре 12 м/с и более поправка равна нулю.
P - Атмосферное давление - приведенное к уровню моря атмосферное давление.
Po - Атмосферное давление - измеренное на уровне метеостанции атмосферное давление.
Tmin - Минимальная температура - минимум температуры воздуха на высоте 2 м над землей.
Tmax - Максимальная температура - максимум температуры воздуха на высоте 2 м над землей.
R - Количество осадков - Количество выпавших осадков за период времени, мм. При наведении курсора мыши на число - период времени, за который выпало указанное количество осадков.
R24 - Количество осадков - Количество выпавших осадков за 24 часа, мм.
S - Снежный покров - Высота снежного покрова, см. При наведении курсора мыши на число - состояние снежного покрова и степень покрытия местности в баллах.